Simultaneous Nadir Overpasses (SNOs) Predictions

Prediction of SNOs between LANDSAT-8 and NOAA-19 Satellite Orbit:

Table of predicted SNOs for the next 14.0 days since TLE Epoch: 3/21/2020
Index Date (LANDSAT-8) Time (LANDSAT-8) Lat,Lon (LANDSAT-8) SZA (LANDSAT-8 ) Date (NOAA-19) Time (NOAA-19) Lat,Lon (NOAA-19) SZA (NOAA-19 ) Distance(km) Time Diff (sec)
1 03/22/2020 15:40:18 -79.57, 149.01 100.68 03/22/2020 15:39:19 -79.59, 149.02 100.67 2.75 59
2 03/22/2020 16:29:44 79.57, -43.36 79.31 03/22/2020 16:30:14 79.56, -43.35 79.31 0.97 30
3 03/24/2020 22:03:27 -79.58, 53.31 101.54 03/24/2020 22:03:38 -79.57, 53.27 101.55 1.63 11
4 03/27/2020 03:37:09 79.59, 149.91 77.61 03/27/2020 03:36:55 79.60, 149.78 77.61 2.72 14
5 03/29/2020 09:10:52 -79.60,-113.41 103.23 03/29/2020 09:10:18 -79.60,-113.53 103.25 2.51 34
6 03/29/2020 10:00:18 79.60, 54.17 76.75 03/29/2020 10:01:14 79.56, 54.13 76.74 3.65 56
7 03/31/2020 14:44:34 79.60, -16.87 75.92 03/31/2020 14:43:35 79.61, -16.80 75.92 1.48 59
8 03/31/2020 15:34:02 -79.57, 150.59 104.13 03/31/2020 15:34:37 -79.58, 150.67 104.11 1.94 35




NCC Satellite Simultaneous Nadir Overpasses (SNOs) Prediction Service
